Preview of NWS' New Version of Forecast
This preview is not operational and should not be used for support decisions.
Latest weather observations around

Joplin, Joplin Regional Airport (KJLN)

Using English Units (Switch to International System of Units)
Date/ Time (CDT) Wind (mph) Vis. (mi) Weather Sky Cond. Temp (°F) Rel. Humidity Wind Chill (°F) Heat Index (°F) Pressure Precip. (in)
Air Dwpt 6 hour Altimeter (inHg) Sea level (inHg) 1 hr 3 hr 6 hr
Max Min
Jun 18 23:53 ESE 7 10 Light Rain BKN110 66 63     90%     29.85 29.82 0    
Jun 18 23:24 ESE 7 6 Light Rain and Fog/Mist OVC100 65 64     97%     29.87   0    
Jun 18 22:53 SE 9 6 Thunderstorms and Rain and Fog/Mist FEW046 SCT090 OVC110 65 63     93%     29.88 29.85 0    
Jun 18 22:44 ESE 5 5 Thunderstorms and Rain and Fog/Mist FEW046 BKN090 OVC110 65 63     93%     29.9   0    
Jun 18 22:20 E 6 10 Cloudy SCT060 OVC080 65 63     93%     29.9   0    
Jun 18 21:53 N 9 10 Light Rain SCT021 SCT035 OVC055 64 63     96%     29.91   1 1  
Jun 18 21:45 N 13 3 Thunderstorms and Rain and Fog/Mist SCT021 BKN042 OVC050 65 63     93%     29.92   1    
Jun 18 21:40 N 14 1 Thunderstorms and Heavy Rain and Fog/Mist BKN019 OVC043 65 63     93%     29.92   1    
Jun 18 21:34   0.75 Thunderstorms and Heavy Rain and Fog/Mist SCT017 BKN035 OVC043 66 63     90%         0    
Jun 18 21:27   2.5 Heavy Rain FEW026 FEW035 OVC045 70 65     84%         0    
Jun 18 20:53 Calm 10 Mostly Cloudy BKN050 74 69     85%   75 29.86 29.83      
Jun 18 19:53 W 3 10 Mostly Clear FEW040 79 68     69%   80 29.85 29.82      
Jun 18 18:53 WSW 8 10 Clear CLR 82 67     60%   85 29.83 29.8      
Jun 18 17:53 SSW 8 10 Clear CLR 83 67     59%   86 29.82 29.79      
Jun 18 16:53 S 5 10 Clear CLR 82 67     60%   85 29.84 29.81      
Jun 18 15:53 Calm 10 Mostly Clear FEW044 83 65     55%   85 29.88 29.85      
Jun 18 14:53 5 10 Partly Cloudy SCT043 84 65     53%   86 29.9 29.87      
Jun 18 13:53 3 10 Mostly Clear FEW036 82 66     58%   84 29.92 29.89      
Jun 18 12:53 6 10 Clear CLR 81 68     65%   84 29.94 29.91      
Jun 18 11:53 3 10 Partly Cloudy SCT022 79 69     72%   80 29.95 29.92      
Jun 18 10:53 5 10 Partly Cloudy SCT016 76 68     76%   77 29.95 29.92      
Jun 18 09:53 3 10 Clear CLR 76 69     79%   77 29.94 29.91      
Jun 18 08:53 Calm 10 Clear CLR 74 67     79%   75 29.95 29.92      
Jun 18 07:53 Calm 10 Clear CLR 71 67     87%   72 29.94 29.91      
Jun 18 06:53 Calm 5 Fog/Mist CLR 64 64     100%     29.94 29.91      
Jun 18 05:53 Calm 5 Fog/Mist CLR 62 62     100%     29.92 29.89      
Jun 18 05:46 Calm 0.75 Fog/Mist VV002 63 62     97%     29.93        
Jun 18 05:26 Calm 0.5 Fog VV002 63 62     97%     29.93        
Jun 18 05:24 Calm 1.25 Fog/Mist FEW002 63 63     100%     29.93        
Jun 18 05:04 Calm 8 Clear CLR 63 62     97%     29.92        
Jun 18 04:57 Calm 2.5 Fog/Mist CLR 63 62     97%     29.92        
Jun 18 04:53 SSE 3 0.75 Fog/Mist CLR 63 62     97%     29.92 29.89      
Jun 18 04:42 Calm 1 Fog/Mist VV002 63 63     100%     29.92        
Jun 18 04:22 Calm 0.5 Fog VV002 63 62     97%     29.91        
Jun 18 03:53 Calm 1.25 Fog/Mist FEW002 63 63     100%     29.91 29.88      
Jun 18 03:36 Calm 1.25 Fog/Mist FEW002 64 64     100%     29.91        
Jun 18 03:25 Calm 0.75 Fog/Mist VV002 64 63     96%     29.91        
Jun 18 03:23 Calm 1.25 Fog/Mist CLR 64 63     96%     29.91        
Jun 18 03:19 Calm 7 Clear CLR 64 63     96%     29.91        
Jun 18 03:07 Calm 2.5 Fog/Mist CLR 65 64     97%     29.92        
Jun 18 02:53 Calm 6 Fog/Mist CLR 65 64     97%     29.93 29.9      
Jun 18 02:21 SE 3 9 Clear CLR 65 64     97%     29.94        
Jun 18 02:12 Calm 2.5 Fog/Mist CLR 65 65     100%     29.94        
Jun 18 01:53 Calm 3 Fog/Mist CLR 65 65     100%     29.96 29.93      
Jun 18 01:34 Calm 4 Fog/Mist CLR 66 64     93%     29.97        
Jun 18 01:31 Calm 1 Fog/Mist CLR 65 64     97%     29.97        
Jun 18 01:25 Calm 0.5 Fog CLR 65 64     97%     29.97        
Jun 18 01:20 Calm 1.75 Fog/Mist CLR 65 65     100%     29.97        
Jun 18 00:53 Calm 8 Clear CLR 66 65     96%     29.97 29.94      
Jun 17 23:53 E 3 10 Clear CLR 67 66     97%     29.95 29.93      
Jun 17 22:53 E 5 10 Mostly Clear FEW041 68 66     93%     29.93 29.91      
Jun 17 21:53 ENE 3 10 Mostly Cloudy BKN035 72 67     84%   73 29.92 29.9      
Jun 17 20:53 Calm 10 Clear CLR 72 67     84%   73 29.91 29.88      
Jun 17 19:53 N 5 10 Clear CLR 77 67     71%   78 29.9 29.87      
Jun 17 18:53 NNE 3 10 Mostly Cloudy BKN060 77 66     69%   78 29.89 29.87      
Jun 17 17:53 NNE 3 10 Clear CLR 80 66     62%   82 29.9 29.87      
Jun 17 16:53 6 10 Partly Cloudy FEW028 SCT034 80 67     64%   82 29.91 29.88      
Jun 17 15:53 NNE 9 10 Mostly Cloudy FEW021 FEW026 BKN035 80 68     67%   83 29.93 29.9      
Jun 17 14:53 3 10 Partly Cloudy SCT040 77 66     69%   78 29.94 29.91      
Jun 17 13:53 NNE 8 10 Cloudy BKN014 OVC048 74 66     76%   75 29.95 29.93      
Jun 17 12:58 5 10 Cloudy BKN014 OVC048 72 66     82%   73 29.97        
Jun 17 12:53 3 10 Cloudy BKN020 BKN035 OVC055 71 66     84%   72 29.97 29.94     0
Jun 17 11:53 5 10 Cloudy BKN028 OVC035 71 66     84%   72 29.96 29.94      
Jun 17 10:53 3 10 Cloudy FEW012 SCT038 OVC060 71 67     87%   72 29.95 29.93      
Jun 17 09:53 Calm 10 Cloudy SCT039 OVC050 68 66     93%     29.95 29.92 0 0  
Jun 17 08:53 5 7 Light Rain OVC110 67 65     93%     29.93 29.91 0    
Jun 17 07:53 Calm 5 Rain and Fog/Mist OVC100 66 65     96%     29.93 29.91 0    
Jun 17 06:53 5 4 Rain and Fog/Mist SCT047 SCT065 OVC090 66 65     96%     29.93 29.9 0   1
Jun 17 05:53 Calm 4 Rain and Fog/Mist SCT031 BKN050 OVC090 66 65     96%     29.91 29.89 0    
Jun 17 05:44 Calm 3 Rain and Fog/Mist BKN029 BKN036 OVC090 66 65     96%     29.91   0    
Jun 17 05:35 SSW 3 3 Rain and Fog/Mist SCT025 OVC034 66 65     96%     29.91   0    
Jun 17 05:16 WNW 6 2 Heavy Rain and Fog/Mist FEW005 BKN025 OVC033 66 66     100%     29.91   0    
Jun 17 05:03 WSW 10 1.5 Heavy Rain and Fog/Mist SCT005 BKN017 OVC033 66 66     100%     29.91   0    
Jun 17 04:57 WSW 11 1.75 Heavy Rain and Fog/Mist BKN005 BKN012 OVC048 66 66     100%     29.9   0    
Jun 17 04:53 WSW 9 3 Heavy Rain and Fog/Mist BKN005 OVC048 66 66     100%     29.9 29.87 0    
Jun 17 04:46 W 9 5 Light Rain and Fog/Mist SCT005 SCT032 OVC048 67 65     93%     29.89   0    
Jun 17 04:37 W 5 7 Light Rain BKN048 OVC060 66 65     96%     29.88   0    
Jun 17 03:53 NE 5 10 Cloudy FEW060 BKN070 OVC090 66 66     100%     29.87 29.85 0 0  
Jun 17 02:53 NNE 5 10 Light Rain FEW090 BKN110 66 65     96%     29.88 29.85 0    
Jun 17 01:53 NE 6 7 Light Rain FEW085 BKN110 66 65     96%     29.89 29.87 0    
Jun 17 00:53 E 7 5 Clear   67 66     97%     29.91 29.88 0   0
Jun 17 00:43 E 3 4 Rain and Fog/Mist FEW028 BKN070 OVC100 67 66     97%     29.9   0    
Jun 17 00:35 SE 6 3 Rain and Fog/Mist SCT028 BKN043 OVC070 67 65     93%     29.91   0    
Jun 17 00:29 SE 8 1 Heavy Rain and Fog/Mist FEW015 BKN026 OVC070 67 65     93%     29.91   0    
Jun 17 00:21 SE 8 1.75 Heavy Rain and Fog/Mist FEW015 BKN044 OVC050 68 66     93%     29.91   0    
Jun 17 00:10 S 8 4 Heavy Rain and Fog/Mist FEW015 BKN048 OVC060 69 66     90%     29.91   0    
Jun 16 23:53 Calm 10 Cloudy BKN055 OVC095 70 66     87%     29.87 29.85      
Jun 16 22:53 NE 5 10 Cloudy BKN050 OVC120 70 66     87%     29.88 29.85      
Jun 16 21:53 NE 3 10 Mostly Cloudy BKN110 70 65     84%     29.87 29.84      
Jun 16 20:53 ENE 3 10 Partly Cloudy SCT065 SCT110 72 66     82%   73 29.86 29.84      
Jun 16 19:53 N 3 10 Mostly Clear FEW070 73 66     79%   74 29.85 29.83      
Jun 16 18:53 N 3 10 Clear CLR 75 67     76%   76 29.84 29.82     0
Jun 16 17:53 N 3 10 Clear CLR 78 66     67%   79 29.85 29.82      
Jun 16 16:53 Calm 10 Mostly Cloudy FEW046 BKN095 77 66     69%   78 29.86 29.84 0    
Jun 16 15:53 N 5 10 Cloudy OVC085 74 67     79%   75 29.89 29.86      
Jun 16 14:53 N 5 10 Cloudy OVC085 75 67     76%   76 29.9 29.87      
Jun 16 13:53 Calm 10 Cloudy OVC080 72 67     84%   73 29.92 29.89      
Jun 16 12:53 WSW 7 10 Cloudy FEW050 BKN075 OVC090 71 67     87%   72 29.93 29.9     0
Jun 16 11:53 SW 9 10 Cloudy OVC090 71 67     87%   72 29.93 29.9      
Jun 16 10:53 S 7 10 Cloudy BKN100 OVC120 71 66     84%   72 29.9 29.87      
Jun 16 09:53 S 9 10 Mostly Clear FEW100 72 66     82%   73 29.88 29.85   0  
Jun 16 08:53 S 8 10 Clear CLR 70 65     84%     29.85 29.82      
Jun 16 08:01 SSE 9 10 Mostly Clear FEW009 66 65     96%     29.84        
Jun 16 07:53   10 Mostly Clear FEW055 FEW110 66 65     96%     29.88 29.85 0    
Jun 16 06:53 ENE 9 10 Light Rain FEW070 BKN120 65 64     97%     29.9 29.87 0   1
Jun 16 06:38 SE 7 10 Light Rain FEW070 FEW085 BKN110 65 64     97%     29.93   0    
Jun 16 05:53 SSW 9 5 Thunderstorms and Rain and Fog/Mist OVC095 65 65     100%     29.97 29.94 0    
Jun 16 05:43 SSW 10 5 Rain and Fog/Mist OVC100 65 65     100%     29.97   0    
Jun 16 05:27 S 13 7 Rain FEW005 FEW085 OVC110 65 64     97%     29.96   0    
Jun 16 05:17 SE 8 8 Light Rain SCT005 OVC110 65 64     97%     29.93   0    
Jun 16 05:03 SE 5 9 Light Rain BKN005 OVC110 65 64     97%     29.92   0    
Jun 16 04:53 SE 7 7 Light Rain OVC005 65 64     97%     29.91 29.88 0    
Jun 16 04:40 Calm 5 Thunderstorms and Rain and Fog/Mist BKN007 BKN090 OVC110 64 64     100%     29.88   0    
Jun 16 04:16 W 6 4 Thunderstorms and Rain and Fog/Mist FEW006 BKN048 OVC100 64 63     96%     29.88   0    
Jun 16 04:04 Calm 2 Thunderstorms and Heavy Rain and Fog/Mist SCT006 BKN038 OVC070 64 64     100%     29.87   0    
Jun 16 03:53 WNW 5 1 Thunderstorms and Heavy Rain and Fog/Mist BKN005 OVC020 64 64     100%     29.87 29.84 1 1  
Jun 16 03:48 W 6 0.75 Thunderstorms and Heavy Rain and Fog/Mist BKN005 OVC016 64 64     100%     29.87   1    
Jun 16 03:38 Calm 0.5 Thunderstorms and Heavy Rain and Fog FEW006 BKN014 OVC048 64 64     100%     29.88   1    
Jun 16 03:35 NNW 3 0.75 Thunderstorms and Heavy Rain and Fog/Mist FEW006 BKN018 OVC060 64 63     96%     29.88   1    
Jun 16 03:26 NNW 13 1.75 Thunderstorms and Heavy Rain and Fog/Mist SCT026 BKN037 OVC060 65 62     90%     29.86   0    
Jun 16 03:23 NNW 14 3 Thunderstorms and Heavy Rain FEW024 BKN037 OVC060 67 61     81%     29.85   0    
Jun 16 03:08   10 Cloudy SCT030 OVC037 70 60     71%     29.81        
Jun 16 02:53   10 Cloudy SCT022 OVC031 73 60     64%   73 29.81 29.78      
Jun 16 02:37   10 Cloudy BKN023 BKN048 OVC065 74 65     74%   74 29.81        
Jun 16 02:01 S 9 10 Mostly Cloudy SCT070 BKN100 76 70     82%   77 29.78        
Jun 16 01:53 S 9 10 Mostly Cloudy SCT070 BKN100 76 70     82%   77 29.78 29.74      
Jun 16 01:46 S 9 10 Mostly Cloudy SCT070 BKN095 76 70     82%   77 29.79        
Jun 16 00:53 S 11 10 Mostly Cloudy BKN090 76 70     82%   77 29.8 29.76     0
May 15 06:53 NNW 6 10 Clear CLR 61 60     97%     29.92 29.89     1
May 14 05:53 S 10 10 Clear CLR 69 63     81%     29.95 29.92      
May 13 10:53   10 Clear CLR 80 68     67%   83 30.03 30      
May 12 18:53 S 17 10 Clear CLR 81 65     58%   83 29.91 29.88      
May 12 08:53 S 11 10 Clear CLR 74 64     71%   74 29.96 29.93      
May 12 00:53 SSE 8 10 Clear CLR 70 61     73%     29.89 29.86      
Jun 12 01:53 S 9 10 Clear CLR 73 65     76%   74 29.92 29.88      
Jun 11 21:53 S 10 10 Clear CLR 79 65     62%   80 29.9 29.86      
Jun 11 11:53   10 Partly Cloudy SCT032 84 71     65%   89 29.94 29.9      
Jun 11 10:53   10 Clear CLR 83 70     65%   87 29.93 29.89      
Jun 10 19:53 S 15 10 Clear CLR 81 67     62%   83 29.83 29.79      
Jun 10 17:53   10 Clear CLR 85 68     57%   88 29.82 29.79      
Jun 10 11:53   10 Clear CLR 82 67     60%   85 29.9 29.86      
Jun 09 14:53 S 13 10 Partly Cloudy SCT055 80 61     52%   81 29.91 29.89      
Jun 09 00:53 SE 3 10 Clear CLR 60 55     83%     29.94 29.91      
Jun 08 23:53 S 3 10 Clear   62 56     80%     29.94 29.92      
Jun 08 12:53 WNW 5 10 Clear CLR 79 53     41%   78 30.05 30.03      
Jun 08 06:53 Calm 10 Clear CLR 56 53     90%     30.06 30.04      
Jun 07 21:53 Calm 10 Clear CLR 64 56     75%     30.05 30.02      
Jun 07 14:53 NNE 9 10 Clear CLR 81 52     37%   80 30.06 30.03      
Jun 07 11:53 E 9 10 Mostly Clear FEW060 79 49     35%   78 30.09 30.07      
Jun 06 11:53 N 5 10 Clear CLR 82 64     55%   84 29.96 29.93      
Jun 06 10:53 N 5 10 Clear CLR 79 66     65%   80 29.96 29.92      
Notice The following observation data may not be complete
Jun 06 04:02   2 Fog/Mist CLR          %              
Jun 05 19:53 Calm 10 Mostly Cloudy BKN075 84 70     63%   88 29.83 29.79